Location: Newark
(44.3248°N, 23.7839°E)
Time: 12:53:53
(UTC+00:00)

PCSat - Visible Passes

Search period start: 13 April 2024 00:00
Search period end: 23 April 2024 00:00
Orbit: 783 x 792 km, 67.0° (Epoch: 12 April)

Date Brightness Start Highest point End Pass type
(mag) Time Alt. Az. Time Alt. Az. Time Alt. Az.
13 Apr 12.5 02:20:15 10° N 02:22:49 13° NNE 02:25:22 10° ENE visible
13 Apr 10.1 18:47:52 25° SSE 18:49:59 34° ESE 18:54:49 10° NE visible
13 Apr 10.8 20:28:11 10° WSW 20:33:15 40° NW 20:38:21 10° NNE visible
13 Apr 12.6 22:17:00 10° NW 22:18:10 11° NNW 22:19:20 10° NNW visible
14 Apr 12.7 01:49:29 10° NNE 01:50:49 11° NNE 01:52:10 10° NE visible
14 Apr 10.5 18:14:14 10° SSE 18:18:32 25° ESE 18:22:52 10° NE visible
14 Apr 10.3 19:56:16 10° SW 20:01:32 53° NW 20:06:51 10° NNE visible
14 Apr 12.5 21:43:43 10° WNW 21:46:11 13° NNW 21:48:39 10° N visible
15 Apr 11.6 02:59:08 10° NNW 03:03:58 31° NE 03:08:46 10° ESE visible
15 Apr 10.9 17:43:38 10° SE 17:47:09 18° ESE 17:50:40 10° ENE visible
15 Apr 9.8 19:24:30 10° SW 19:29:53 71° WNW 19:35:19 10° NNE visible
15 Apr 12.3 21:10:57 10° WNW 21:14:14 16° NW 21:17:31 10° N visible
16 Apr 12.0 02:27:44 10° NNW 02:32:11 25° NE 02:36:35 10° E visible
16 Apr 9.5 18:52:52 10° SSW 18:58:16 86° ESE 19:03:44 10° NNE visible
16 Apr 12.1 20:38:26 10° W 20:42:20 20° NW 20:46:16 10° N visible
17 Apr 12.3 01:56:23 10° N 02:00:20 20° NE 02:04:15 10° E visible
17 Apr 9.5 18:21:23 10° SSW 18:26:42 64° ESE 18:32:04 10° NE visible
17 Apr 11.8 20:06:05 10° W 20:10:29 25° NW 20:14:55 10° NNE visible
18 Apr 12.5 01:25:08 10° N 01:28:26 16° NE 01:31:44 10° ENE visible
18 Apr 10.0 03:07:21 10° NNW 03:12:47 71° ENE 03:18:10 10° SE visible
18 Apr 9.8 17:50:04 10° S 17:55:11 46° ESE 18:00:20 10° NE visible
18 Apr 11.4 19:33:54 10° WSW 19:38:41 31° NW 19:43:31 10° NNE visible
19 Apr 12.7 00:54:01 10° N 00:56:29 13° NNE 00:58:57 10° ENE visible
19 Apr 10.5 02:35:49 10° NNW 02:41:08 53° NE 02:46:24 10° SE visible
19 Apr 10.9 19:01:51 10° WSW 19:06:56 41° NW 19:12:04 10° NNE visible
19 Apr 12.9 20:50:30 10° NW 20:51:50 11° NNW 20:53:10 10° NNW visible
20 Apr 12.9 00:23:19 10° NNE 00:24:30 11° NNE 00:25:41 10° NE visible
20 Apr 11.1 02:04:18 10° NNW 02:09:25 40° NE 02:14:29 10° ESE visible
20 Apr 10.4 18:29:57 10° SW 18:35:14 54° NW 18:40:34 10° NNE visible
20 Apr 12.7 20:17:18 10° WNW 20:19:51 13° NNW 20:22:24 10° N visible
21 Apr 11.5 01:32:51 10° NNW 01:37:40 31° NE 01:42:26 10° ESE visible
21 Apr 9.9 17:58:11 10° SW 18:03:35 73° WNW 18:09:01 10° NNE visible
21 Apr 12.5 19:44:33 10° WNW 19:47:54 16° NW 19:51:15 10° N visible
22 Apr 11.9 01:01:28 10° NNW 01:05:52 24° NE 01:10:13 10° E visible
22 Apr 9.6 02:44:18 10° NW 02:49:40 65° WSW 02:55:00 10° SSE visible
22 Apr 12.3 19:12:03 10° W 19:16:01 20° NW 19:19:59 10° N visible
